• In Hungary
  • List of Countries
  • For 7 days
  • Water Temperature
  • Satellite Maps
  • Weather Map
  • News
  • Weather Widgets
  • user-avatar
    Login

    Hourly Weather Orlovka

    Today, 15 November, Thursday

    Time Temperature Precipitation Wind Pressure Humidity
    00:00 -2°C° 0 mm 3 mps 750 mmHg 88%
    01:00 -2°C° 0 mm 3 mps 750 mmHg 89%
    02:00 -2°C° 0 mm 2 mps 751 mmHg 89%
    03:00 -2°C° 0 mm 2 mps 751 mmHg 90%
    04:00 -2°C° 0 mm 2 mps 752 mmHg 90%
    05:00 -2°C° 0 mm 2 mps 752 mmHg 91%
    06:00 -2°C° 0 mm 2 mps 753 mmHg 90%
    07:00 -2°C° 0 mm 3 mps 753 mmHg 90%
    08:00 -2°C° 0 mm 3 mps 754 mmHg 89%
    09:00 -1°C° 0 mm 3 mps 754 mmHg 87%
    10:00 -1°C° 0 mm 3 mps 755 mmHg 84%
    11:00 +1°C° 0 mm 2 mps 755 mmHg 82%
    12:00 +1°C° 0 mm 2 mps 756 mmHg 82%
    13:00 +1°C° 0 mm 2 mps 756 mmHg 82%
    14:00 +1°C° 0 mm 2 mps 756 mmHg 81%
    15:00 +1°C° 0 mm 2 mps 757 mmHg 83%
    16:00 -1°C° 0 mm 2 mps 757 mmHg 85%
    17:00 -1°C° 0 mm 2 mps 758 mmHg 88%
    18:00 -2°C° 0 mm 2 mps 758 mmHg 88%
    19:00 -2°C° 0 mm 2 mps 758 mmHg 88%
    20:00 -2°C° 0 mm 2 mps 759 mmHg 88%
    21:00 0°C° 0 mm 1 mps 759 mmHg 87%
    22:00 0°C° 0 mm 1 mps 760 mmHg 87%
    23:00 0°C° 0 mm 1 mps 760 mmHg 86%

    Tomorrow, 16 November, Friday

    Time Temperature Precipitation Wind Pressure Humidity
    00:00 -1°C° 0 mm 1 mps 760 mmHg 85%
    01:00 -1°C° 0 mm 1 mps 761 mmHg 84%
    02:00 -1°C° 0 mm 1 mps 761 mmHg 82%
    03:00 -1°C° 0 mm 1 mps 761 mmHg 81%
    04:00 -1°C° 0 mm 1 mps 761 mmHg 80%
    05:00 -1°C° 0 mm 1 mps 761 mmHg 78%
    06:00 -3°C° 0 mm 2 mps 762 mmHg 77%
    07:00 -3°C° 0 mm 2 mps 762 mmHg 75%
    08:00 -3°C° 0 mm 2 mps 763 mmHg 73%
    09:00 -2°C° 0 mm 2 mps 763 mmHg 68%
    10:00 -1°C° 0 mm 2 mps 763 mmHg 63%
    11:00 +1°C° 0 mm 2 mps 763 mmHg 58%
    12:00 +1°C° 0 mm 2 mps 763 mmHg 58%
    13:00 +1°C° 0 mm 2 mps 763 mmHg 58%
    14:00 +2°C° 0 mm 1 mps 763 mmHg 59%
    15:00 +1°C° 0 mm 1 mps 763 mmHg 61%
    16:00 -2°C° 0 mm 2 mps 763 mmHg 64%
    17:00 -3°C° 0 mm 2 mps 763 mmHg 66%
    18:00 -3°C° 0 mm 2 mps 763 mmHg 65%
    19:00 -3°C° 0 mm 2 mps 763 mmHg 63%
    20:00 -1°C° 0 mm 1 mps 763 mmHg 62%
    21:00 -1°C° 0 mm 1 mps 763 mmHg 60%
    22:00 -2°C° 0 mm 1 mps 763 mmHg 58%
    23:00 -2°C° 0 mm 1 mps 763 mmHg 56%

    Day after tomorrow, 17 November, Saturday

    Time Temperature Precipitation Wind Pressure Humidity
    00:00 -2°C° 0 mm 1 mps 763 mmHg 55%
    01:00 -2°C° 0 mm 1 mps 763 mmHg 53%
    02:00 -3°C° 0 mm 0 mps 763 mmHg 51%
    03:00 -3°C° 0 mm 0 mps 762 mmHg 50%
    04:00 -3°C° 0 mm 0 mps 762 mmHg 49%
    05:00 -3°C° 0 mm 0 mps 762 mmHg 48%
    06:00 -3°C° 0 mm 0 mps 762 mmHg 49%
    07:00 -3°C° 0 mm 0 mps 762 mmHg 49%
    08:00 -3°C° 0 mm 0 mps 761 mmHg 49%
    09:00 -1°C° 0 mm 1 mps 761 mmHg 48%
    10:00 0°C° 0 mm 1 mps 760 mmHg 46%
    11:00 +1°C° 0 mm 1 mps 760 mmHg 44%
    12:00 -1°C° 0 mm 2 mps 759 mmHg 47%
    13:00 -1°C° 0 mm 2 mps 759 mmHg 50%
    14:00 -1°C° 0 mm 2 mps 758 mmHg 53%
    15:00 -1°C° 0 mm 2 mps 757 mmHg 58%
    16:00 -2°C° 0 mm 2 mps 757 mmHg 63%
    17:00 -2°C° 0 mm 3 mps 756 mmHg 69%
    18:00 -2°C° 0 mm 3 mps 755 mmHg 73%
    19:00 -2°C° 0 mm 3 mps 754 mmHg 77%
    20:00 -2°C° 0 mm 3 mps 754 mmHg 81%
    21:00 -2°C° 0.1 mm 3 mps 753 mmHg 84%
    22:00 -2°C° 0.1 mm 3 mps 752 mmHg 87%
    23:00 -3°C° 0.1 mm 4 mps 751 mmHg 90%

    18 November, Sunday

    Time Temperature Precipitation Wind Pressure Humidity
    00:00 -1°C° 0.1 mm 3 mps 751 mmHg 92%
    01:00 -1°C° 0.1 mm 3 mps 750 mmHg 93%
    02:00 -1°C° 0.1 mm 3 mps 749 mmHg 95%
    03:00 -1°C° 0.1 mm 3 mps 748 mmHg 95%
    04:00 -1°C° 0.1 mm 3 mps 747 mmHg 96%
    05:00 -1°C° 0.1 mm 3 mps 746 mmHg 97%
    06:00 -1°C° 0.1 mm 3 mps 746 mmHg 97%
    07:00 -1°C° 0.1 mm 2 mps 746 mmHg 97%
    08:00 -1°C° 0.1 mm 2 mps 745 mmHg 97%
    09:00 +1°C° 0.1 mm 2 mps 745 mmHg 97%
    10:00 +1°C° 0.1 mm 2 mps 744 mmHg 96%
    11:00 +1°C° 0.1 mm 2 mps 744 mmHg 95%
    12:00 +2°C° 0.1 mm 1 mps 744 mmHg 95%
    13:00 +2°C° 0.1 mm 1 mps 744 mmHg 96%
    14:00 +2°C° 0.1 mm 1 mps 743 mmHg 96%
    15:00 +2°C° 0.2 mm 1 mps 743 mmHg 97%
    16:00 +2°C° 0.2 mm 1 mps 743 mmHg 97%
    17:00 +1°C° 0.2 mm 1 mps 743 mmHg 97%
    18:00 +1°C° 0.1 mm 1 mps 743 mmHg 97%
    19:00 +1°C° 0.1 mm 1 mps 743 mmHg 97%
    20:00 +1°C° 0.1 mm 1 mps 744 mmHg 97%
    21:00 -1°C° 0.1 mm 2 mps 744 mmHg 97%
    22:00 -1°C° 0.1 mm 2 mps 744 mmHg 96%
    23:00 -1°C° 0.1 mm 3 mps 745 mmHg 96%

    19 November, Monday

    Time Temperature Precipitation Wind Pressure Humidity
    00:00 -1°C° 0.1 mm 3 mps 745 mmHg 95%
    01:00 -1°C° 0.1 mm 3 mps 746 mmHg 95%
    02:00 -2°C° 0.1 mm 3 mps 746 mmHg 94%
    03:00 -2°C° 0.1 mm 3 mps 746 mmHg 94%
    04:00 -2°C° 0.1 mm 3 mps 747 mmHg 93%
    05:00 -2°C° 0.1 mm 3 mps 747 mmHg 93%
    06:00 -2°C° 0 mm 3 mps 748 mmHg 92%
    07:00 -3°C° 0 mm 4 mps 748 mmHg 91%
    08:00 -3°C° 0 mm 4 mps 749 mmHg 90%
    09:00 -3°C° 0 mm 4 mps 749 mmHg 88%
    10:00 -3°C° 0 mm 4 mps 750 mmHg 87%
    11:00 -2°C° 0 mm 4 mps 750 mmHg 85%
    12:00 -2°C° 0 mm 4 mps 750 mmHg 84%
    13:00 -2°C° 0 mm 4 mps 751 mmHg 83%
    14:00 -2°C° 0 mm 4 mps 751 mmHg 82%
    15:00 -3°C° 0 mm 4 mps 751 mmHg 80%
    16:00 -3°C° 0 mm 4 mps 751 mmHg 79%
    17:00 -3°C° 0 mm 4 mps 752 mmHg 77%
    18:00 -4°C° 0 mm 4 mps 752 mmHg 76%
    19:00 -4°C° 0 mm 4 mps 752 mmHg 75%
    20:00 -5°C° 0 mm 4 mps 752 mmHg 74%
    21:00 -5°C° 0 mm 4 mps 752 mmHg 74%
    22:00 -5°C° 0 mm 4 mps 753 mmHg 75%
    23:00 -5°C° 0 mm 3 mps 753 mmHg 76%

    20 November, Tuesday

    Time Temperature Precipitation Wind Pressure Humidity
    00:00 -5°C° 0 mm 3 mps 753 mmHg 77%
    01:00 -5°C° 0 mm 4 mps 753 mmHg 78%
    02:00 -5°C° 0 mm 4 mps 753 mmHg 79%
    03:00 -5°C° 0 mm 4 mps 753 mmHg 80%
    04:00 -5°C° 0 mm 4 mps 753 mmHg 82%
    05:00 -5°C° 0 mm 3 mps 753 mmHg 83%
    06:00 -7°C° 0 mm 4 mps 753 mmHg 84%
    07:00 -7°C° 0 mm 4 mps 753 mmHg 84%
    08:00 -7°C° 0 mm 4 mps 753 mmHg 85%
    09:00 -5°C° 0 mm 4 mps 753 mmHg 84%
    10:00 -4°C° 0 mm 4 mps 753 mmHg 83%
    11:00 -4°C° 0 mm 4 mps 753 mmHg 81%
    12:00 -4°C° 0 mm 4 mps 753 mmHg 82%
    13:00 -3°C° 0 mm 4 mps 752 mmHg 83%
    14:00 -3°C° 0 mm 4 mps 752 mmHg 84%
    15:00 -3°C° 0 mm 4 mps 752 mmHg 85%
    16:00 -4°C° 0 mm 4 mps 751 mmHg 86%
    17:00 -4°C° 0 mm 4 mps 751 mmHg 86%
    18:00 -4°C° 0 mm 4 mps 751 mmHg 87%
    19:00 -4°C° 0 mm 4 mps 751 mmHg 87%
    20:00 -4°C° 0 mm 3 mps 751 mmHg 88%
    21:00 -4°C° 0 mm 3 mps 751 mmHg 90%
    22:00 -4°C° 0 mm 3 mps 750 mmHg 91%
    23:00 -4°C° 0 mm 3 mps 750 mmHg 93%
    Show more